TimeEST,TemperatureF,Dew PointF,Humidity,Sea Level PressureIn,VisibilityMPH,Wind Direction,Wind SpeedMPH,Gust SpeedMPH,PrecipitationIn,Events,Conditions,WindDirDegrees,DateUTC
12:35 AM,33.8,24.8,70,30.27,10.0,NNW,8.1,-,N/A,,Overcast,340,2013-01-15 05:35:00
12:55 AM,33.8,24.8,70,30.26,10.0,North,5.8,-,N/A,,Overcast,360,2013-01-15 05:55:00
1:15 AM,33.8,23.0,65,30.28,10.0,North,10.4,-,N/A,,Overcast,350,2013-01-15 06:15:00
1:35 AM,33.8,24.8,70,30.25,10.0,North,12.7,-,0.01,,Overcast,360,2013-01-15 06:35:00
1:55 AM,33.8,24.8,70,30.24,9.0,NNE,5.8,-,0.01,,Overcast,20,2013-01-15 06:55:00
2:15 AM,32.0,24.8,75,30.28,10.0,North,11.5,16.1,N/A,,Overcast,350,2013-01-15 07:15:00
2:55 AM,32.0,24.8,75,30.25,10.0,Calm,Calm,-,N/A,,Overcast,0,2013-01-15 07:55:00
3:15 AM,32.0,24.8,75,30.24,10.0,North,4.6,-,0.01,,Overcast,10,2013-01-15 08:15:00
4:15 AM,32.0,24.8,75,30.23,10.0,North,8.1,-,N/A,,Overcast,10,2013-01-15 09:15:00
4:35 AM,32.0,24.8,75,30.23,10.0,North,6.9,-,N/A,,Overcast,350,2013-01-15 09:35:00
5:15 AM,32.0,24.8,75,30.23,10.0,North,5.8,-,N/A,,Overcast,360,2013-01-15 10:15:00
5:45 AM,32.0,24.8,75,30.24,10.0,NNW,3.5,-,N/A,,Overcast,340,2013-01-15 10:45:00
5:55 AM,32.0,24.8,75,30.25,10.0,NNW,3.5,-,N/A,,Overcast,330,2013-01-15 10:55:00
7:45 AM,30.2,21.2,69,30.29,10.0,North,10.4,-,N/A,,Partly Cloudy,10,2013-01-15 12:45:00
8:45 AM,30.2,21.2,69,30.32,10.0,North,8.1,-,N/A,,Mostly Cloudy,10,2013-01-15 13:45:00
10:45 AM,33.8,21.2,60,30.30,10.0,North,6.9,-,N/A,,Partly Cloudy,10,2013-01-15 15:45:00
11:45 AM,33.8,23.0,65,30.30,10.0,Calm,Calm,-,N/A,,Scattered Clouds,0,2013-01-15 16:45:00
12:45 PM,35.6,23.0,60,30.28,10.0,North,6.9,-,N/A,,Scattered Clouds,10,2013-01-15 17:45:00
1:45 PM,35.6,23.0,60,30.26,10.0,North,9.2,-,N/A,,Clear,10,2013-01-15 18:45:00
2:45 PM,35.6,21.2,56,30.26,10.0,NNE,9.2,-,N/A,,Scattered Clouds,20,2013-01-15 19:45:00
3:46 PM,35.6,21.2,56,30.26,10.0,North,5.8,-,N/A,,Clear,350,2013-01-15 20:46:00
4:45 PM,33.8,21.2,60,30.27,10.0,North,4.6,-,N/A,,Mostly Cloudy,350,2013-01-15 21:45:00
5:45 PM,33.8,21.2,60,30.27,10.0,North,4.6,-,N/A,,Clear,360,2013-01-15 22:45:00
6:45 PM,33.8,21.2,60,30.27,10.0,North,6.9,-,N/A,,Overcast,360,2013-01-15 23:45:00
7:45 PM,33.8,21.2,60,30.26,10.0,NNE,8.1,-,N/A,,Overcast,30,2013-01-16 00:45:00
8:55 PM,33.8,21.2,60,30.25,10.0,North,6.9,-,N/A,,Overcast,10,2013-01-16 01:55:00
9:15 PM,33.8,21.2,60,30.25,10.0,NNE,4.6,-,N/A,,Overcast,20,2013-01-16 02:15:00
9:55 PM,33.8,21.2,60,30.24,10.0,North,6.9,-,N/A,,Overcast,360,2013-01-16 02:55:00
10:15 PM,33.8,19.4,56,30.24,10.0,North,4.6,-,N/A,,Overcast,360,2013-01-16 03:15:00
10:35 PM,33.8,19.4,56,30.22,10.0,NE,4.6,-,N/A,,Overcast,40,2013-01-16 03:35:00
10:55 PM,33.8,19.4,56,30.23,10.0,NNE,3.5,-,N/A,,Overcast,20,2013-01-16 03:55:00
11:15 PM,33.8,19.4,56,30.23,10.0,NNE,3.5,-,N/A,,Overcast,20,2013-01-16 04:15:00
11:35 PM,33.8,19.4,56,30.22,10.0,NNE,4.6,-,N/A,,Overcast,30,2013-01-16 04:35:00